Simultaneous Nadir Overpasses (SNOs) Predictions

Prediction of SNOs between AURA and NPP Satellite Orbit:

Table of predicted SNOs for the next 14.0 days since TLE Epoch: 5/29/2020
Index Date (AURA) Time (AURA) Lat,Lon (AURA) SZA (AURA ) Date (NPP) Time (NPP) Lat,Lon (NPP) SZA (NPP ) Distance(km) Time Diff (sec)
1 05/30/2020 03:41:32 79.49, 21.36 70.84 05/30/2020 03:41:10 79.49, 21.40 70.85 0.93 22
2 05/30/2020 04:30:53 -79.72,-169.35 109.51 05/30/2020 04:31:48 -79.73,-169.21 109.58 3.09 55
3 06/01/2020 19:08:41 -79.24, -32.09 109.13 06/01/2020 19:07:28 -79.23, -32.19 109.06 2.33 73
4 06/01/2020 19:57:58 79.57, 137.81 70.38 06/01/2020 19:58:02 79.58, 137.88 70.36 1.29 4
5 06/04/2020 11:25:06 -79.36, 84.59 109.60 06/04/2020 11:24:19 -79.35, 84.51 109.55 1.89 47
6 06/04/2020 12:14:24 79.65,-105.75 69.96 06/04/2020 12:14:54 79.66,-105.65 69.92 2.00 30
7 06/07/2020 03:41:31 -79.44,-159.01 109.97 06/07/2020 03:41:10 -79.43,-159.06 109.94 1.03 21
8 06/07/2020 04:30:49 79.72, 10.67 69.61 06/07/2020 04:31:45 79.73, 10.81 69.54 3.10 56
9 06/09/2020 19:08:36 79.26, 148.08 70.10 06/09/2020 19:07:24 79.26, 148.02 70.16 1.18 72
10 06/09/2020 19:57:56 -79.55, -42.36 110.33 06/09/2020 19:58:01 -79.55, -42.35 110.34 0.20 5
11 06/12/2020 11:25:01 79.37, -95.34 69.79 06/12/2020 11:24:15 79.37, -95.32 69.82 0.53 46




NCC Satellite Simultaneous Nadir Overpasses (SNOs) Prediction Service
